DW5386 Rochester WA US current weather conditions

sailwx.info

Wind from 167

Air temperature 16.1° C
Dewpoint 7.1° C

Last reported at 2020-Sep-29 04:50 UTC.
Time now 2020-Sep-29 05:34 UTC

Location: N 46°47' W 123°09'.
View on Google Maps.

See reports from other nearby stations

  
Tides and Currents Weather Stations Pressure Air Temp Water Temp Dewpoint Dewpoint Depression Visibility Wind Speed Wind Dir Waves Ship Positions
date/time (UTC)wind fromknots sea level pressurealtimeterstation pressurevisibilityair tempwater tempwave heightnotes
2020-Sep-29 04:50 167 16.1
2020-Sep-29 04:35 257 16.1
2020-Sep-29 04:20 200 16.7
2020-Sep-29 04:05 045 0 gusting 3 16.1
2020-Sep-29 03:50 226 2 gusting 5 16.1
2020-Sep-29 03:35 209 15.6
2020-Sep-29 03:20 226 2 gusting 4 15.6
2020-Sep-29 03:05 190 16.1
2020-Sep-29 02:50 170 0 gusting 5 15.6
2020-Sep-29 02:35 162 16.1
2020-Sep-29 02:20 162 0 gusting 4 16.7
2020-Sep-29 02:05 232 17.8
2020-Sep-29 01:50 238 18.3
2020-Sep-29 01:35 119 19.4
2020-Sep-29 01:20 005 21.1
2020-Sep-29 01:05 331 0 gusting 3 22.2
2020-Sep-29 00:50 295 22.2
2020-Sep-29 00:35 019 22.2
2020-Sep-29 00:20 345 22.8
2020-Sep-29 00:05 338 2 gusting 7 22.2
2020-Sep-28 23:50 202 22.8
2020-Sep-28 23:35 005 2 gusting 10 22.8
2020-Sep-28 23:20 340 1 gusting 7 23.3
2020-Sep-28 23:05 019 2 gusting 8 23.3
2020-Sep-28 22:50 355 5 gusting 12 22.8
2020-Sep-28 22:35 351 1 gusting 11 22.8
2020-Sep-28 22:20 334 1 gusting 8 23.3
2020-Sep-28 22:05 329 3 gusting 6 22.8
2020-Sep-28 21:50 321 22.8
2020-Sep-28 21:35 296 0 gusting 8 22.8
2020-Sep-28 21:20 355 4 gusting 7 22.2
2020-Sep-28 21:05 299 2 gusting 8 22.2
2020-Sep-28 20:50 012 2 gusting 6 21.7
2020-Sep-28 20:35 084 1 gusting 7 21.1
2020-Sep-28 20:20 115 0 gusting 9 21.1
2020-Sep-28 20:05 032 3 gusting 7 21.1
2020-Sep-28 19:50 334 1 gusting 8 20.6
2020-Sep-28 19:35 157 0 gusting 4 20.0
2020-Sep-28 19:20 005 1 gusting 6 19.4
2020-Sep-28 19:05 076 0 gusting 5 19.4
2020-Sep-28 18:50 148 2 gusting 7 18.3
2020-Sep-28 18:35 325 1 gusting 5 18.3
2020-Sep-28 18:20 351 3 gusting 9 17.8
2020-Sep-28 18:05 286 3 gusting 8 17.2
2020-Sep-28 17:50 005 2 gusting 11 16.7
2020-Sep-28 17:35 092 2 gusting 6 16.1
2020-Sep-28 17:20 005 1 gusting 5 16.1
2020-Sep-28 17:05 121 15.6
2020-Sep-28 16:50 048 0 gusting 4 15.0
2020-Sep-28 16:35 137 13.9
2020-Sep-28 16:20 022 13.3
2020-Sep-28 16:05 355 12.8
2020-Sep-28 15:50 041 12.2
2020-Sep-28 15:35 309 11.1
2020-Sep-28 15:20 184 10.0
2020-Sep-28 15:05 204 0 gusting 2 9.4
2020-Sep-28 14:50 204 8.9
2020-Sep-28 14:35 204 0 gusting 1 8.9
2020-Sep-28 14:20 204 8.9
2020-Sep-28 14:05 204 0 gusting 2 8.9
2020-Sep-28 13:50 173 9.4
2020-Sep-28 13:35 349 0 gusting 3 8.9
2020-Sep-28 13:20 139 8.3
2020-Sep-28 13:05 139 8.3
2020-Sep-28 12:50 138 8.9
2020-Sep-28 12:35 138 8.9
2020-Sep-28 12:20 199 8.9
2020-Sep-28 12:05 199 8.9
2020-Sep-28 11:50 199 8.9
2020-Sep-28 11:35 198 8.9
2020-Sep-28 11:20 202 8.9
2020-Sep-28 11:05 202 8.9
2020-Sep-28 10:50 202 8.3
2020-Sep-28 10:35 202 8.9
2020-Sep-28 10:20 202 8.9
2020-Sep-28 10:05 202 9.4
2020-Sep-28 09:50 256 9.4
2020-Sep-28 09:35 275 8.9
2020-Sep-28 09:20 275 0 gusting 3 8.9
2020-Sep-28 09:05 259 8.9
2020-Sep-28 08:50 259 8.9
2020-Sep-28 08:35 259 8.9
2020-Sep-28 08:20 259 8.9
2020-Sep-28 08:05 260 8.9
2020-Sep-28 07:50 260 8.9
2020-Sep-28 07:35 260 8.9
2020-Sep-28 07:20 260 8.9
2020-Sep-28 07:05 260 8.9
2020-Sep-28 06:50 263 8.9
2020-Sep-28 06:35 263 0 gusting 1 8.9
2020-Sep-28 06:20 327 8.9
2020-Sep-28 06:05 327 9.4
2020-Sep-28 05:50 327 9.4
2020-Sep-28 05:35 328 9.4
2020-Sep-28 05:20 329 9.4
2020-Sep-28 05:05 329 9.4
2020-Sep-28 04:50 329 10.0
2020-Sep-28 04:35 329 10.0
2020-Sep-28 04:20 329 10.0
2020-Sep-28 04:05 329 10.6
2020-Sep-28 03:50 329 10.6
2020-Sep-28 03:35 329 11.1
2020-Sep-28 03:20 329 11.1
2020-Sep-28 03:05 329 11.7
2020-Sep-28 02:50 329 12.2
2020-Sep-28 02:35 329 12.8
2020-Sep-28 02:20 329 13.3
2020-Sep-28 02:05 329 13.9
2020-Sep-28 01:50 329 14.4
2020-Sep-28 01:35 329 15.6
2020-Sep-28 01:20 329 16.1
2020-Sep-28 01:05 329 0 gusting 1 17.2
2020-Sep-28 00:50 317 1 gusting 5 17.8
2020-Sep-28 00:35 355 1 gusting 5 18.3
2020-Sep-28 00:20 135 1 gusting 8 18.3
2020-Sep-28 00:05 329 2 gusting 7 18.9
2020-Sep-27 23:50 005 2 gusting 7 18.9
2020-Sep-27 23:35 278 1 gusting 5 18.9
2020-Sep-27 23:20 009 1 gusting 5 19.4
2020-Sep-27 23:05 030 1 gusting 6 19.4
2020-Sep-27 22:50 177 0 gusting 4 18.9
2020-Sep-27 22:35 237 18.9
2020-Sep-27 22:20 333 2 gusting 9 18.9
2020-Sep-27 22:05 344 3 gusting 6 18.9
2020-Sep-27 21:50 331 2 gusting 7 18.9
2020-Sep-27 21:35 119 0 gusting 6 18.3
2020-Sep-27 21:20 355 0 gusting 4 18.3
2020-Sep-27 21:05 302 0 gusting 4 18.3
2020-Sep-27 20:50 041 17.8
2020-Sep-27 20:35 350 17.2
2020-Sep-27 20:20 229 17.2
2020-Sep-27 20:05 051 16.7
2020-Sep-27 19:50 159 3 gusting 9 16.7
2020-Sep-27 19:35 109 0 gusting 6 16.1
2020-Sep-27 19:20 018 15.6
2020-Sep-27 19:05 077 0 gusting 6 15.6
2020-Sep-27 18:50 078 1 gusting 6 15.0
2020-Sep-27 18:35 031 0 gusting 4 14.4
2020-Sep-27 18:20 342 0 gusting 4 13.9
2020-Sep-27 18:05 336 13.3
2020-Sep-27 17:50 335 12.8
2020-Sep-27 17:35 348 12.8
2020-Sep-27 17:20 311 12.2
2020-Sep-27 17:05 355 12.8
2020-Sep-27 16:50 173 12.2
2020-Sep-27 16:35 173 12.2
2020-Sep-27 16:20 173 12.2
2020-Sep-27 16:05 173 11.7
2020-Sep-27 15:50 173 11.1
2020-Sep-27 15:35 173 11.1
2020-Sep-27 15:20 173 10.6
2020-Sep-27 15:05 173 10.6
2020-Sep-27 14:50 173 10.6